Regional Weather Roundup
Issued by NWS

Home | Current Version | Previous Version | Graphics & Text | Print | Product List | Glossary On
Versions: 1 2 3 4 5 6 7 8 9 10 11 12 13 14 15 16 17 18 19 20 21 22 23 24 25 26 27 28 29 30 31 32 33 34 35 36 37 38 39 40 41 42 43 44 45 46 47 48 49 50
000
ASUS43 KLOT 282206
RWRIL

ILLINOIS REGIONAL WEATHER ROUNDUP
NATIONAL WEATHER SERVICE CHICAGO/ROMEOVILLE IL
500 PM CDT THU AUG 28 2014

NOTE: "FAIR" INDICATES FEW OR NO CLOUDS BELOW 12,000 FEET WITH NO
SIGNIFICANT WEATHER AND/OR OBSTRUCTIONS TO VISIBILITY.

* THESE STATIONS ARE NOT UNDER NWS QUALITY CONTROL. THEY ALSO MAY NOT
  REPORT WEATHER SUCH AS PRECIPITATION OR FOG.

ILZ001-002-007-009-015-016-024-282300-
NORTHWEST ILLINOIS

CITY           SKY/WX    TMP DP  RH WIND       PRES   REMARKS
MOLINE         LGT RAIN  69  66  90 E12       30.01F
STERLING*      CLOUDY    70  64  83 CALM      30.04R
SAVANNA*       RAIN      70  66  88 SE6       30.03R
$$

ILZ003-004-008-010-011-017-018-282300-
NORTH CENTRAL ILLINOIS

CITY           SKY/WX    TMP DP  RH WIND       PRES   REMARKS
ROCKFORD       LGT RAIN  73  58  59 E8        30.06S
FREEPORT*      LGT RAIN  70  66  87 E5        30.06F
ROCHELLE*      CLOUDY    74  61  61 E5        30.05S
DE KALB*       CLOUDY    73  60  62 E6        30.06S
PERU*          CLOUDY    76  66  69 E7        30.03S
$$

ILZ005-006-012>014-019>023-282300-
NORTHEAST ILLINOIS

CITY           SKY/WX    TMP DP  RH WIND       PRES   REMARKS
CHICAGO-OHARE  PTSUNNY   73  56  54 NE12      30.06F
CHICAGO-MIDWAY PTSUNNY   76  62  62 NE9       30.05F
AURORA         PTSUNNY   78  60  53 SE7       30.04F
LANSING*       SUNNY     75  64  66 NE9       30.05F
JOLIET*        SUNNY     78  61  55 E6        30.04S
WAUKEGAN       MOSUNNY   69  58  67 E10       30.07F
DUPAGE AIRPORT MOSUNNY   75  57  53 NE13      30.05F
KANKAKEE*      CLOUDY    80  63  56 E7        30.04S HX  81
WHEELING       MOSUNNY   72  58  61 E8        30.08F
MORRIS*        MOSUNNY   78  65  64 SE5       30.04R HX  80
ROMEOVILLE*    MOSUNNY   76  60  58 E9        30.04S
NORTHERLY ISL    N/A     71  61  70 NE10        N/A
$$

LMZ740>746-282300-
SOUTHERN LAKE MICHIGAN

STATION/POSITION SKY/WX   TEMP    WIND        PRES    VSBY  WAVE
                          AIR SEA DIR/SP/G                  HT/PER
                          (F)     (DEG/KT/KT) (MB)    (MI)  (FT/S)
SOUTHERN BUOY              69 69   50/ 12/ 12 1018.6F         1/ 3
WAUKEGAN HARBOR            68      60/ 11/ 12   N/A
HARRISON CRIB              69      50/ 10/ 12   N/A
BURNHAM HARBOR             71      50/  8/ 10   N/A
CALUMET HARBOR             71      20/  8/ 11 1016.8S
MICHIGAN CITY              70      20/ 12/ 13   N/A
MICHIGAN CITY 6N           72 73   40/ 10/ 14   N/A           2/ 4
ST. JOSEPH                 71 72   20/ 12/ 14   N/A           2/ 2
$$

ILZ025>027-034>036-040-047-049-050-058-095>099-282300-
WEST-CENTRAL ILLINOIS

CITY           SKY/WX    TMP DP  RH WIND       PRES   REMARKS
QUINCY         PTSUNNY   87  74  64 E6        29.95F HX  95
GALESBURG*     CLOUDY    76  72  85 N15       30.00R
MACOMB*        CLOUDY    77  69  78 NW25G37   30.03R
JACKSONVILLE*  MOSUNNY   88  74  62 S7        29.98S HX  97
PITTSFIELD*    MOSUNNY   89  72  58 S5        29.96F HX  95
$$

ILZ028>032-037-038-041>044-048-051>054-059>061-282300-
CENTRAL ILLINOIS

CITY           SKY/WX    TMP DP  RH WIND       PRES   REMARKS
PONTIAC        MOSUNNY   81  70  69 E6        30.02S HX  84
DECATUR        PTSUNNY   85  74  69 E8        30.00S HX  92
PEORIA         PTSUNNY   82  70  66 E6        29.99F HX  86
LACON*         PTSUNNY   78  67  69 E6        30.00S HX  80
LINCOLN*       MOSUNNY   86  72  63 SE6       29.95F HX  92
SPRINGFIELD    PTSUNNY   86  74  67 SE6       29.97S HX  94
TAYLORVILLE    MOSUNNY  N/A N/A N/A SE6       29.98S
$$

ILZ033-039-045-046-055>057-062-063-282300-
EAST-CENTRAL ILLINOIS

CITY           SKY/WX    TMP DP  RH WIND       PRES   REMARKS
CHAMPAIGN      SUNNY     83  69  62 E7        30.02S HX  86
DANVILLE*      SUNNY     82  66  58 SE5       30.00S HAZE    HX  84
RANTOUL*       MOSUNNY   85  65  51 E5        30.03R HX  87
MATTOON        SUNNY     85  71  63 SE6       29.99S HX  90
PARIS*         SUNNY     83  67  57 CALM      30.02S HX  86
$$

ILZ079-100>102-282300-
SOUTHWEST ILLINOIS

CITY           SKY/WX    TMP DP  RH WIND       PRES   REMARKS
ALTON          MOSUNNY   86  73  66 E5        29.96  HX  93
BELLEVILLE     MOSUNNY   89  76  64 E5        29.94F HX  99
CAHOKIA*       SUNNY     88  73  62 SE6       29.94S HX  96
SPARTA*        HAZE      80  72  76 E8        29.97R THUNDER VSB 1
$$

ILZ064>066-069>071-074>076-080>082-084>086-088>090-092>094-282300-
SOUTH-CENTRAL ILLINOIS

CITY           SKY/WX    TMP DP  RH WIND       PRES   REMARKS
CARBONDALE     CLOUDY    78  72  81 E9        29.99R HX  80
CAIRO*         TSTM      75  70  83 N9        29.98F VSB 1
EFFINGHAM*     MOSUNNY   88  69  54 E6        29.99S HX  92
MARION         PTSUNNY   77  73  88 SE9       30.01R
MT. VERNON     PTSUNNY   79  70  73 SW10      30.00R HX  81
CENTRALIA*     PTSUNNY   85  74  70 SE8       29.97  HX  92
SALEM*         MOSUNNY   88  78  71 CALM      29.98S HX 101
METROPOLIS*    TSTM      73  73 100 NW8       30.00R
$$

ILZ067-068-072-073-078-083-087-091-282300-
SOUTHEAST ILLINOIS

CITY           SKY/WX    TMP DP  RH WIND       PRES   REMARKS
LAWRENCEVILLE  SUNNY     89  71  55 NE3       29.98F HX  95
FLORA*         SUNNY     87  72  60 E3        29.98S HX  93
FAIRFIELD*     CLOUDY    82  75  78 S10       29.99R THUNDER HX  89
HARRISBURG*    RAIN      73  73 100 CALM      30.01R
ROBINSON*      SUNNY     88  74  62 NE5       30.00S HX  96
CARMI*         CLOUDY    85  78  80 SW8       29.99R THUNDER HX  96
$$

ABBREVIATIONS USED IN REMARKS
   TC - TEMPERATURE IN CELSIUS
  WCI - WIND CHILL INDEX
   HX - HEAT INDEX
  VSB - VISIBILITY
$$




USA.gov is the U.S. government's official web portal to all federal, state and local government web resources and services.